YSTW

Tamworth Airport

Airport
ICAO code
YSTW
IATA Code
TMW
Summary
ICAO Region
APAC
ICAO Territory
Location

Tamworth, New South Wales

Serving
Tamworth
Elevation
1334 ft
Coordinates
31° 4' 41" S , 150° 50' 45" E
KCC
Airport WX
Cumulonimbus
Metar
YSTW 230500Z AUTO 20005KT 9999 // FEW042 BKN058 15/06 Q1020

A regional airport serving Tamworth, a city in the Australian state of New South Wales. It is located 5 nm west of the city.

 

Airport map

Aerial View

SKYbrary Partners:

Safety knowledge contributed by: